EW2997 Weather Reports


time (UTC)temp
F
wind
direction
speed
knots
gust
knots
rain 1hr
in
rain 24hr
in
rain mn
in
humidity
%
barometer
mb
20260901051722 68 186 0.0 0.0 0.00 0.00 0.00 97 1022.2
20260901044721 69 181 0.0 0.0 0.00 0.00 0.00 97 1021.5
20260901041716 69 185 0.0 0.0 0.00 0.00 0.00 97 1021.9
20260901034713 69 185 0.0 0.0 0.00 0.04 0.04 96 1022.2
20260901031713 69 185 0.0 0.0 0.00 0.04 0.04 96 1022.2
20260901024711 69 185 0.0 0.0 0.00 0.04 0.04 96 1022.5
20260901021707 69 185 0.0 0.0 0.00 0.04 0.04 96 1022.5
20260901014706 69 185 0.0 0.0 0.00 0.04 0.04 96 1022.9
20260901011702 69 185 0.0 0.0 0.00 0.04 0.04 96 1022.2
20260901004702 69 185 0.0 0.0 0.00 0.04 0.04 96 1021.9
20260901001659 69 185 0.0 0.0 0.00 0.04 0.04 96 1021.9
20260831234656 69 185 0.0 0.0 0.00 0.04 0.04 93 1021.9
20260831231653 71 185 0.0 0.0 0.00 0.04 0.04 91 1021.9
20260831224651 71 96 0.0 0.0 0.00 0.04 0.04 90 1021.9
20260831221647 71 116 1.7 1.7 0.00 0.04 0.04 87 1022.2
20260831214644 73 258 4.3 4.3 0.04 0.04 0.04 80 1022.9
20260831211641 79 210 1.7 1.7 0.00 0.00 0.00 76 1022.2
20260831204638 80 254 1.7 1.7 0.00 0.00 0.00 71 1022.5
20260831201636 79 260 3.5 3.5 0.00 0.00 0.00 75 1022.9
20260831194636 78 229 1.7 1.7 0.00 0.00 0.00 77 1022.9
20260831191631 79 216 1.7 1.7 0.00 0.00 0.00 74 1023.3
20260831184629 79 236 1.7 1.7 0.00 0.00 0.00 74 1023.3
20260831181625 79 234 1.7 1.7 0.00 0.00 0.00 73 1023.7
20260831174625 78 235 2.6 2.6 0.00 0.00 0.00 75 1023.7
20260831171621 78 138 1.7 1.7 0.00 0.00 0.00 77 1023.7
20260831164616 78 246 2.6 2.6 0.00 0.00 0.00 79 1024.0
20260831161613 77 240 1.7 1.7 0.00 0.00 0.00 76 1024.0
20260831154614 78 272 0.0 0.0 0.00 0.00 0.00 75 1024.0
20260831151611 76 260 1.7 1.7 0.00 0.00 0.00 77 1024.3
20260831144607 76 269 2.6 2.6 0.00 0.00 0.00 79 1024.3
20260831141605 78 278 0.0 0.0 0.00 0.00 0.00 71 1024.3
20260831134602 73 287 1.7 1.7 0.00 0.00 0.00 85 1024.7
20260831131557 73 266 1.7 1.7 0.00 0.00 0.00 85 1024.7
20260831124553 71 266 0.0 0.0 0.00 0.00 0.00 89 1024.3
20260831121549 69 220 0.0 0.0 0.00 0.00 0.00 91 1024.3
20260831114547 68 220 0.0 0.0 0.00 0.00 0.00 94 1024.0
20260831111546 67 138 0.0 0.0 0.00 0.00 0.00 95 1024.3
20260831104545 67 138 0.0 0.0 0.00 0.00 0.00 95 1024.0
20260831101545 67 138 0.0 0.0 0.00 0.00 0.00 96 1024.0
20260831094540 67 138 0.0 0.0 0.00 0.00 0.00 96 1023.7
20260831091536 67 138 0.0 0.0 0.00 0.00 0.00 95 1022.9
20260831084532 67 138 0.0 0.0 0.00 0.00 0.00 95 1022.9
20260831081532 67 138 0.0 0.0 0.00 0.00 0.00 96 1022.9
20260831074531 68 138 0.0 0.0 0.00 0.00 0.00 95 1022.9
20260831071527 68 138 0.0 0.0 0.00 0.00 0.00 94 1022.9
20260831064527 69 138 0.0 0.0 0.00 0.00 0.00 93 1023.3
20260831061523 71 138 1.7 1.7 0.00 0.00 0.00 88 1022.9